Weather reports worldwide

Advertisment
Cabo Busto, Spain (8010): temperature & dewpoint: 10.01.2018 08:00:00 - 16.01.2018 08:00:00 (CET)Cabo Busto, Spain (8010): wind speed & gusts: 10.01.2018 08:00:00 - 16.01.2018 08:00:00 (CET)Cabo Busto, Spain (8010): wind direction: 10.01.2018 08:00:00 - 16.01.2018 08:00:00 (CET)Cabo Busto, Spain (8010): reduced air pressure: 10.01.2018 08:00:00 - 16.01.2018 08:00:00 (CET)Cabo Busto, Spain (8010): visibility: 10.01.2018 08:00:00 - 16.01.2018 08:00:00 (CET)Cabo Busto, Spain (8010): sunshine duration: 10.01.2018 08:00:00 - 16.01.2018 08:00:00 (CET)Cabo Busto, Spain (8010): precipitation: 10.01.2018 08:00:00 - 16.01.2018 08:00:00 (CET)
Date & Time tt [°C] td [°C] ff [km/h] ff [kn] fx [km/h] fx [kn] dd ppp [hPa] vv [km] sd [min] rr [mm]
16.01.2018 08:00:00 14,9 8,4 43 23 54 29 WSW 1022,2 20 0 0,0
16.01.2018 07:00:00 14,4 8,5 33 18 40 22 WSW 1022,5 20 0 -
16.01.2018 06:00:00 13,2 9,3 23 12 36 19 W 1022,8 3,8 0 0,0
16.01.2018 05:00:00 13,5 9,2 29 16 45 25 W 1022,3 11 0 0,0
16.01.2018 04:00:00 14,7 8,9 37 20 54 29 W 1022,0 20 0 0,0
16.01.2018 03:00:00 14,7 8,9 40 22 57 31 WSW 1021,8 20 0 0,0
16.01.2018 02:00:00 14,9 8,8 48 26 68 37 WSW 1021,9 20 0 0,0
16.01.2018 01:00:00 15,0 8,5 53 28 72 39 WSW 1021,4 20 0 -
16.01.2018 00:00:00 14,7 8,0 49 26 71 38 WSW 1021,5 20 0 0,0
15.01.2018 23:00:00 14,6 7,6 51 27 71 39 WSW 1021,2 20 0 0,0
15.01.2018 22:00:00 14,6 7,4 50 27 73 39 WSW 1020,8 20 0 0,2
15.01.2018 21:00:00 14,5 7,1 54 29 82 45 WSW 1020,6 20 0 0,0
15.01.2018 20:00:00 14,4 6,7 49 27 77 41 WSW 1019,8 20 0 0,2
15.01.2018 19:00:00 14,3 6,4 55 30 80 43 WSW 1019,1 20 0 -
15.01.2018 18:00:00 14,4 6,2 48 26 74 40 WSW 1019,0 20 8 0,2
15.01.2018 17:00:00 13,8 5,9 51 28 72 39 WSW 1019,5 20 0 0,2
15.01.2018 16:00:00 13,7 5,3 47 26 70 38 WSW 1019,5 20 8 0,2
15.01.2018 15:00:00 13,7 3,4 44 24 63 34 WSW 1019,5 20 0 0,0
15.01.2018 14:00:00 13,5 1,1 42 23 66 36 WSW 1020,2 20 0 0,0
15.01.2018 13:00:00 12,8 -0,7 35 19 59 32 WSW 1021,9 20 0 -
15.01.2018 12:00:00 12,4 0,4 27 15 45 24 WSW 1022,8 20 0 0,0
15.01.2018 11:00:00 11,1 1,9 14 8 31 17 W 1023,2 20 29 0,0
15.01.2018 10:00:00 10,0 2,1 21 12 35 19 WSW 1023,4 20 9 0,0
15.01.2018 09:00:00 7,4 1,7 7 4 24 13 WSW 1024,0 20 0 0,0
15.01.2018 08:00:00 8,3 1,7 11 6 23 12 SW 1023,6 20 0 0,0
15.01.2018 07:00:00 6,1 1,7 14 7 22 12 S 1023,5 20 0 -
15.01.2018 06:00:00 6,5 1,7 14 7 26 14 S 1023,5 20 0 0,0
15.01.2018 05:00:00 6,1 2,3 12 7 20 11 S 1023,7 20 0 0,0
15.01.2018 04:00:00 5,3 1,9 18 10 23 12 SSE 1024,0 20 0 0,0
15.01.2018 03:00:00 5,4 2,3 16 9 21 11 SE 1024,1 20 0 0,0
15.01.2018 02:00:00 5,8 2,7 17 9 24 13 SSE 1024,1 20 0 0,0
15.01.2018 01:00:00 6,3 3,0 16 9 21 11 SSE 1024,5 20 0 -
15.01.2018 00:00:00 7,2 3,6 15 8 22 12 SSE 1024,6 20 0 0,0
14.01.2018 23:00:00 8,9 3,8 13 7 19 10 SSW 1024,1 20 0 0,0
14.01.2018 22:00:00 7,6 3,9 13 7 16 9 SSE 1023,4 20 0 0,0
14.01.2018 21:00:00 8,5 4,5 11 6 18 10 SSE 1023,1 20 0 0,0
14.01.2018 20:00:00 9,8 4,3 12 6 17 9 SW 1022,5 20 0 0,0
14.01.2018 19:00:00 9,9 4,6 11 6 23 12 SSW 1022,1 19 0 -
14.01.2018 18:00:00 10,4 5,0 13 7 24 13 W 1021,1 17 30 0,0
14.01.2018 17:00:00 - - - - - - - - - - -
14.01.2018 16:00:00 - - - - - - - - - - -
14.01.2018 15:00:00 - - - - - - - - - - -
14.01.2018 14:00:00 - - - - - - - - - - -
14.01.2018 13:00:00 - - - - - - - - - - -
14.01.2018 12:00:00 9,2 5,3 8 5 27 14 SSW 1020,5 8 11 0,8
14.01.2018 11:00:00 - - - - - - - - - - -
14.01.2018 10:00:00 9,1 3,8 20 11 30 16 WSW 1019,0 20 0 0,0
14.01.2018 09:00:00 9,0 3,6 13 7 30 16 SW 1018,3 20 0 0,0
14.01.2018 08:00:00 8,8 3,2 19 11 39 21 WSW 1017,7 20 0 0,0
14.01.2018 07:00:00 8,8 3,4 22 12 38 20 WSW 1017,1 20 0 -
14.01.2018 06:00:00 9,0 3,6 23 12 35 19 WSW 1017,1 20 0 0,0
14.01.2018 05:00:00 9,0 3,2 24 13 39 21 WSW 1017,1 20 0 0,0
14.01.2018 04:00:00 9,1 3,0 29 15 40 22 WSW 1016,8 20 0 0,0
14.01.2018 03:00:00 9,0 2,9 27 15 40 22 WSW 1016,4 20 0 0,0
14.01.2018 02:00:00 - - - - - - - - - - -
14.01.2018 01:00:00 - - - - - - - - - - -
14.01.2018 00:00:00 - - - - - - - - - - -
13.01.2018 23:00:00 9,3 3,8 20 11 40 22 WSW 1016,2 20 0 0,0
13.01.2018 22:00:00 9,4 4,6 32 17 50 27 W 1016,2 20 0 0,0
13.01.2018 21:00:00 9,4 3,2 18 10 31 17 SSW 1015,9 20 0 0,0
13.01.2018 20:00:00 9,8 3,8 19 10 31 17 SW 1015,5 19 0 0,0
13.01.2018 19:00:00 9,9 4,8 14 7 23 12 WSW 1014,9 11 0 -
13.01.2018 18:00:00 10,3 5,3 13 7 51 28 SW 1014,4 20 18 0,0
13.01.2018 17:00:00 - - - - - - - - - - -
13.01.2018 16:00:00 11,8 5,1 27 15 38 20 WSW 1013,3 20 2 0,0
13.01.2018 15:00:00 11,7 5,1 27 15 43 23 WSW 1013,2 20 0 0,2
13.01.2018 14:00:00 11,2 4,6 26 14 38 21 WSW 1013,2 20 0 0,0
13.01.2018 13:00:00 - - - - - - - - - - -
13.01.2018 12:00:00 - - - - - - - - - - -
13.01.2018 11:00:00 10,3 5,1 11 6 22 12 SSW 1014,1 20 0 0,0
13.01.2018 10:00:00 10,3 5,6 11 6 33 18 SW 1013,8 20 0 0,0
13.01.2018 09:00:00 9,0 6,4 12 7 23 12 SW 1013,3 19 0 0,0
13.01.2018 08:00:00 9,0 6,5 12 6 18 10 SW 1013,4 15 0 0,0
13.01.2018 07:00:00 7,6 5,1 6 4 13 7 S 1013,5 20 0 -
13.01.2018 06:00:00 8,1 5,0 9 5 29 15 ESE 1013,4 20 0 0,0
13.01.2018 05:00:00 7,2 4,6 19 10 26 14 SE 1013,6 13 0 0,0
13.01.2018 04:00:00 6,9 4,5 17 9 23 12 SSE 1014,5 13 0 0,0
13.01.2018 03:00:00 7,4 3,8 12 7 22 12 S 1014,6 14 0 0,0
13.01.2018 02:00:00 8,6 2,5 18 10 27 15 SSE 1014,6 20 0 0,0
13.01.2018 01:00:00 7,6 2,9 19 10 26 14 SE 1015,3 20 0 -
13.01.2018 00:00:00 8,1 3,0 23 12 34 19 SE 1016,1 20 0 0,0
12.01.2018 23:00:00 7,2 3,8 15 8 20 11 SSE 1017,6 20 0 0,0
12.01.2018 22:00:00 8,5 3,8 3 2 15 8 ESE 1018,0 20 0 0,0
12.01.2018 21:00:00 - - - - - - - - - - -
12.01.2018 20:00:00 - - - - - - - - - - -
12.01.2018 19:00:00 9,5 5,3 13 7 20 11 SE 1019,1 20 0 -
12.01.2018 18:00:00 10,0 5,1 12 7 18 10 ESE 1019,7 20 0 0,0
12.01.2018 17:00:00 10,6 5,9 6 4 13 7 E 1020,6 20 7 0,0
12.01.2018 16:00:00 11,0 6,7 4 2 9 5 SSE 1021,1 19 0 0,0
12.01.2018 15:00:00 10,9 6,4 4 2 9 5 S 1021,7 19 0 0,0
12.01.2018 14:00:00 11,0 6,1 3 2 12 7 SSE 1022,4 20 17 0,0
12.01.2018 13:00:00 10,1 5,9 9 5 20 11 SE 1023,4 20 18 -
12.01.2018 12:00:00 8,6 5,0 15 8 23 13 SSE 1024,3 20 0 0,0
12.01.2018 11:00:00 7,7 4,5 17 9 - - SSE 1024,5 20 24 0,0
12.01.2018 10:00:00 6,9 4,1 17 9 24 13 SE 1024,7 20 0 0,0
12.01.2018 09:00:00 7,0 4,1 19 10 24 13 SE 1024,2 20 0 0,0
12.01.2018 08:00:00 7,3 4,6 19 10 25 13 SSE 1024,5 20 0 0,0
12.01.2018 07:00:00 7,9 5,1 18 10 22 12 SSE 1024,6 20 0 -
12.01.2018 06:00:00 8,1 5,6 15 8 18 10 SSE 1025,2 20 0 0,0
12.01.2018 05:00:00 8,4 5,5 11 6 17 9 SSE 1025,5 20 0 0,0
12.01.2018 04:00:00 8,6 5,8 13 7 18 10 SSE 1025,8 20 0 0,0
12.01.2018 03:00:00 9,8 6,1 10 6 18 10 SSW 1026,3 20 0 0,0
12.01.2018 02:00:00 9,9 6,4 13 7 23 12 SW 1026,4 14 0 0,0
12.01.2018 01:00:00 10,3 6,4 9 5 28 15 SSW 1026,8 20 0 -
12.01.2018 00:00:00 - - - - - - - - - - -
11.01.2018 23:00:00 - - - - - - - - - - -
11.01.2018 22:00:00 9,7 6,8 30 16 41 22 W 1026,0 19 0 0,2
11.01.2018 21:00:00 - - - - - - - - - - -
11.01.2018 20:00:00 - - - - - - - - - - -
11.01.2018 19:00:00 - - - - - - - - - - -
11.01.2018 18:00:00 - - - - - - - - - - -
11.01.2018 17:00:00 - - - - - - - - - - -
11.01.2018 16:00:00 - - - - - - - - - - -
11.01.2018 15:00:00 10,8 4,6 46 25 81 44 W 1022,1 17 0 0,0
11.01.2018 14:00:00 10,6 3,8 54 29 88 47 W 1021,1 20 9 0,4
11.01.2018 13:00:00 - - - - - - - - - - -
11.01.2018 12:00:00 - - - - - - - - - - -
11.01.2018 11:00:00 9,2 3,8 49 26 81 44 W 1021,6 19 26 0,0
11.01.2018 10:00:00 8,7 3,0 50 27 72 39 WSW 1020,9 20 0 0,2
11.01.2018 09:00:00 7,9 3,8 32 18 56 31 WSW 1020,8 15 0 0,0
11.01.2018 08:00:00 8,0 3,4 49 26 86 46 W 1019,6 20 0 0,0
11.01.2018 07:00:00 7,8 3,9 50 27 93 50 W 1019,0 18 0 -
11.01.2018 06:00:00 7,8 4,1 44 24 90 49 W 1018,2 11 0 0,6
11.01.2018 05:00:00 8,1 3,6 53 28 - - W 1017,3 12 0 0,4
11.01.2018 04:00:00 8,7 2,9 56 30 79 42 W 1016,8 20 0 0,4
11.01.2018 03:00:00 8,4 4,5 53 29 - - W 1016,4 19 0 0,6
11.01.2018 02:00:00 8,8 4,3 52 28 74 40 W 1016,2 15 0 0,2
11.01.2018 01:00:00 8,2 5,3 51 28 80 43 W 1016,7 10 0 -
11.01.2018 00:00:00 7,5 3,9 25 13 85 46 SW 1016,4 12 0 1,0
10.01.2018 23:00:00 9,1 2,9 53 28 75 40 WSW 1015,1 20 0 0,0
10.01.2018 22:00:00 9,5 3,0 44 24 63 34 WSW 1015,2 19 0 0,0
10.01.2018 21:00:00 9,5 2,3 40 21 63 34 WSW 1015,3 19 0 0,2
10.01.2018 20:00:00 8,8 3,8 36 19 93 50 WSW 1015,2 13 0 0,2
10.01.2018 19:00:00 8,7 3,4 35 19 100 54 WSW 1014,7 16 0 -
10.01.2018 18:00:00 9,6 4,8 56 31 130 70 W 1013,6 14 0 0,0
10.01.2018 17:00:00 8,8 5,0 53 29 99 53 W 1012,6 12 0 0,2
10.01.2018 16:00:00 10,8 3,4 48 26 74 40 WSW 1011,4 20 39 0,0
10.01.2018 15:00:00 9,7 4,3 65 35 119 65 WSW 1010,0 20 0 0,8
10.01.2018 14:00:00 10,0 4,6 73 39 132 71 W 1008,9 10 52 0,0
10.01.2018 13:00:00 10,9 5,6 23 13 69 37 SW 1009,9 20 13 -
10.01.2018 12:00:00 12,1 5,8 34 19 74 40 SW 1009,2 20 0 1,2
10.01.2018 11:00:00 13,9 2,5 25 14 52 28 SSW 1008,2 20 0 0,0
10.01.2018 10:00:00 13,5 2,5 21 12 56 30 SSW 1008,7 20 32 0,0
10.01.2018 09:00:00 - - - - - - - - - - -
10.01.2018 08:00:00 10,5 3,2 10 6 32 17 SW 1010,8 18 0 0,0

tt = temperature
td = dewpoint
ff = wind speed
fx = gusts
dd = wind direction
ppp = reduced air pressure
vv = visibility
sd = sunshine duration
rr = precipitation

Next stations